Flag for Switzerland Weather past 2 weeks in Wädenswil, Zurich, Switzerland

Now
66 °F

Mild.


Feels Like: 66 °F
Forecast: 49 / 68 °F
Wind: 6 mph from Southwest

Location: Zurich Town / Ville.

Current Time: Oct 1, 2014 at 4:39:03 PM

Latest Report: Oct 1, 2014 at 4:00 PM


Visibility: N/A

Pressure: 30.27 "Hg

Humidity: 80%

Dew point: 60 °F

Location of WädenswilLocation

Historic Weather in Wädenswil — Graph

°F

Wädenswil temperature yesterday

Maximum temperature yesterday: 62 °F (at 1:00 PM)
Minimum temperature yesterday: 58 °F (at 5:00 AM)
Average temperature yesterday: 60 °F

Past Weeks' High & Low Weather Summary

 TemperatureHumidityPressure
High73 °F (Sep 20, 3:00 PM)100% (Sep 17, 8:00 AM)30.35 "Hg (Sep 17, 8:00 AM)
Low41 °F (Sep 23, 6:00 AM)47% (Sep 23, 4:00 PM)29.81 "Hg (Sep 17, 5:00 PM)
Average58 °F83%30.12 "Hg
* Reported Sep 16 3:00 PM — Oct 1 3:00 PM, Wädenswil, Weather by CustomWeather, © 2014

Note: Actual official high and low records may vary slightly from our data, if they occured in-between our weather recording intervals... More about our weather records

Advertising

Wädenswil weather history for previous 24 hours

 ConditionsComfort  
Time TempWeatherWind HumidityBarometerVisibility
3:00 PM
Oct 1
64 °FMild.3 mph81%30.28 "HgN/A
2:00 PM62 °FCool.1 mph91%30.30 "HgN/A
1:00 PM62 °FCool.2 mph89%30.32 "HgN/A
12:00 PM60 °FCool.2 mph94%30.32 "HgN/A
11:00 AM59 °FCool.1 mph96%30.32 "HgN/A
10:00 AM58 °FCool.1 mph97%30.31 "HgN/A
9:00 AM58 °FCool.2 mph98%30.30 "HgN/A
8:00 AM58 °FFog.1 mph98%30.29 "HgN/A
7:00 AM58 °FCool.1 mph98%30.29 "HgN/A
6:00 AM58 °FCool.No wind98%30.29 "HgN/A
5:00 AM58 °FCool.No wind97%30.29 "HgN/A
4:00 AM58 °FCool.No wind95%30.30 "HgN/A
3:00 AM58 °FCool.1 mph97%30.30 "HgN/A
2:00 AM58 °FCool.No wind96%30.30 "HgN/A
1:00 AM58 °FCool.2 mph96%30.30 "HgN/A
12:00 AM59 °FCool.No wind97%30.31 "HgN/A
11:00 PM
Sep 30
59 °FCool.1 mph95%30.32 "HgN/A
10:00 PM59 °FCool.1 mph95%30.31 "HgN/A
9:00 PM59 °FCool.1 mph96%30.31 "HgN/A
8:00 PM60 °FPassing clouds.1 mph93%30.31 "HgN/A
7:00 PM60 °FCool.3 mph92%30.30 "HgN/A
6:00 PM60 °FCool.3 mph94%30.29 "HgN/A
5:00 PM61 °FCool.3 mph94%30.30 "HgN/A
4:00 PM62 °FCool.3 mph92%30.30 "HgN/A
Weather by CustomWeather, © 2014

See weather overviewHow to use our weather pages